NWK2748 YPPH-YGIA

Flight info

Callsign NWK2748
Flight time N/A
Altitude 37000
Route AMANA Y31 WONYU
Aircraft A320/M-SDE3FGHIRWYZ/LB1

Departure

Time 2026-05-06 09:38
Airport Perth International Airport (YPPH)

Arrival

Time N/A
Airport Ginbata Airport (YGIA)
Time Latitude Longitude Altitude Speed Heading
2026-05-06 09:26 -31.93381 115.96185 68 ft 0 kts 290°
2026-05-06 09:30 -31.93384 115.96196 61 ft 4 kts 290°
2026-05-06 09:30 -31.93393 115.96225 58 ft 4 kts 290°
2026-05-06 09:31 -31.93403 115.96255 60 ft 4 kts 290°
2026-05-06 09:31 -31.93413 115.96281 58 ft 4 kts 331°
2026-05-06 09:31 -31.93429 115.96284 68 ft 0 kts 20°
2026-05-06 09:31 -31.93411 115.96293 61 ft 2 kts 20°
2026-05-06 09:32 -31.93409 115.96294 68 ft 0 kts 20°
2026-05-06 09:34 -31.93391 115.96301 66 ft 6 kts 19°
2026-05-06 09:34 -31.93321 115.96322 61 ft 14 kts 12°
2026-05-06 09:34 -31.93210 115.96332 59 ft 17 kts
2026-05-06 09:34 -31.93101 115.96397 65 ft 19 kts 49°
2026-05-06 09:35 -31.93008 115.96520 63 ft 21 kts 48°
2026-05-06 09:35 -31.92888 115.96602 64 ft 18 kts 15°
2026-05-06 09:35 -31.92840 115.96672 68 ft 7 kts 106°
2026-05-06 09:35 -31.92851 115.96712 68 ft 0 kts 105°
2026-05-06 09:36 -31.92852 115.96716 68 ft 1 kts 105°
2026-05-06 09:36 -31.92858 115.96742 68 ft 7 kts 105°
2026-05-06 09:36 -31.92871 115.96802 62 ft 9 kts 105°
2026-05-06 09:37 -31.92923 115.96831 61 ft 11 kts 190°
2026-05-06 09:37 -31.93090 115.96780 64 ft 54 kts 194°
2026-05-06 09:37 -31.93675 115.96609 65 ft 116 kts 194°
2026-05-06 09:37 -31.94617 115.96335 75 ft 161 kts 192°
2026-05-06 09:38 -31.95708 115.96004 545 ft 163 kts 192°
2026-05-06 09:38 -31.96826 115.95676 1134 ft 166 kts 191°
2026-05-06 09:38 -31.97943 115.95352 1775 ft 166 kts 191°
2026-05-06 09:38 -31.99111 115.95018 2099 ft 183 kts 190°
2026-05-06 09:39 -32.00424 115.94645 2345 ft 206 kts 191°
2026-05-06 09:39 -32.01918 115.94458 2631 ft 226 kts 165°
2026-05-06 09:39 -32.03294 115.95412 3028 ft 242 kts 126°
2026-05-06 09:39 -32.04058 115.97207 3780 ft 249 kts 108°
2026-05-06 09:40 -32.04500 115.99196 4661 ft 252 kts 102°
2026-05-06 09:40 -32.04854 116.01237 5523 ft 256 kts 101°
2026-05-06 09:40 -32.05615 116.05412 7208 ft 264 kts 103°
2026-05-06 09:41 -32.06054 116.07536 8013 ft 269 kts 104°
2026-05-06 09:41 -32.06525 116.09685 8793 ft 272 kts 104°
2026-05-06 09:41 -32.07021 116.11859 9555 ft 277 kts 105°
2026-05-06 09:41 -32.07536 116.14069 10285 ft 282 kts 105°
2026-05-06 09:42 -32.08039 116.16388 10759 ft 298 kts 100°
2026-05-06 09:42 -32.08163 116.18921 10948 ft 322 kts 87°
2026-05-06 09:42 -32.07731 116.21566 11159 ft 343 kts 72°
2026-05-06 09:42 -32.06679 116.24132 11701 ft 353 kts 58°
2026-05-06 09:43 -32.05083 116.26405 12336 ft 359 kts 48°
2026-05-06 09:43 -32.03377 116.28531 12974 ft 363 kts 48°
2026-05-06 09:43 -32.01609 116.30733 13615 ft 367 kts 48°
2026-05-06 09:43 -31.99851 116.32926 14231 ft 370 kts 48°
2026-05-06 09:44 -31.98094 116.35120 14830 ft 374 kts 48°
2026-05-06 09:44 -31.96278 116.37383 15424 ft 377 kts 48°
2026-05-06 09:44 -31.94468 116.39640 15988 ft 381 kts 49°
2026-05-06 09:44 -31.92641 116.41921 16541 ft 384 kts 48°
2026-05-06 09:45 -31.90800 116.44214 17099 ft 388 kts 48°
2026-05-06 09:45 -31.88935 116.46534 17657 ft 391 kts 48°
2026-05-06 09:45 -31.87059 116.48867 18208 ft 395 kts 48°
2026-05-06 09:45 -31.85163 116.51225 18761 ft 398 kts 48°
2026-05-06 09:46 -31.83251 116.53601 19322 ft 402 kts 48°
2026-05-06 09:46 -31.81319 116.55996 19888 ft 405 kts 48°
2026-05-06 09:46 -31.79367 116.58411 20450 ft 409 kts 48°
2026-05-06 09:46 -31.77400 116.60839 20991 ft 412 kts 48°
2026-05-06 09:47 -31.75415 116.63290 21502 ft 415 kts 48°
2026-05-06 09:47 -31.73419 116.65761 21989 ft 418 kts 48°
2026-05-06 09:47 -31.72092 116.67407 22297 ft 420 kts 48°
2026-05-06 09:47 -31.70079 116.69897 22754 ft 422 kts 48°
2026-05-06 09:48 -31.67356 116.73256 23345 ft 426 kts 47°
2026-05-06 09:48 -31.65309 116.75780 23768 ft 428 kts 47°
2026-05-06 09:48 -31.63944 116.77462 24044 ft 430 kts 47°
2026-05-06 09:48 -31.61877 116.80009 24453 ft 433 kts 47°
2026-05-06 09:49 -31.59088 116.83441 24968 ft 436 kts 47°
2026-05-06 09:49 -31.57666 116.85118 25214 ft 439 kts 43°
2026-05-06 09:49 -31.55249 116.87323 25573 ft 442 kts 34°
2026-05-06 09:49 -31.51562 116.89498 26053 ft 447 kts 20°
2026-05-06 09:50 -31.49619 116.90294 26289 ft 448 kts 20°
2026-05-06 09:50 -31.46664 116.91493 26638 ft 450 kts 20°
2026-05-06 09:50 -31.43701 116.92704 26959 ft 453 kts 20°
2026-05-06 09:50 -31.40721 116.93933 27288 ft 455 kts 20°
2026-05-06 09:51 -31.37730 116.95171 27616 ft 457 kts 20°
2026-05-06 09:51 -31.34724 116.96412 27947 ft 460 kts 20°
2026-05-06 09:51 -31.31695 116.97660 28276 ft 462 kts 20°
2026-05-06 09:51 -31.28658 116.98907 28581 ft 464 kts 20°
2026-05-06 09:52 -31.25608 117.00156 28938 ft 464 kts 20°
2026-05-06 09:52 -31.22565 117.01400 29385 ft 462 kts 20°
2026-05-06 09:52 -31.19530 117.02641 29806 ft 462 kts 20°
2026-05-06 09:52 -31.16502 117.03881 30213 ft 461 kts 20°
2026-05-06 09:53 -31.13475 117.05120 30618 ft 460 kts 19°
2026-05-06 09:53 -31.10458 117.06350 31030 ft 459 kts 19°
2026-05-06 09:53 -31.07445 117.07579 31433 ft 459 kts 19°
2026-05-06 09:53 -31.04429 117.08810 31811 ft 458 kts 19°
2026-05-06 09:54 -31.01422 117.10040 32195 ft 458 kts 19°
2026-05-06 09:54 -30.98411 117.11272 32587 ft 458 kts 19°
2026-05-06 09:54 -30.95406 117.12501 32962 ft 457 kts 19°
2026-05-06 09:54 -30.92400 117.13730 33338 ft 457 kts 19°
2026-05-06 09:55 -30.89402 117.14952 33717 ft 456 kts 19°
2026-05-06 09:55 -30.86409 117.16164 34083 ft 456 kts 19°
2026-05-06 09:55 -30.83423 117.17402 34435 ft 455 kts 20°
2026-05-06 09:55 -30.80459 117.18722 34771 ft 455 kts 21°
2026-05-06 09:56 -30.77519 117.20094 35072 ft 455 kts 21°
2026-05-06 09:56 -30.74589 117.21487 35378 ft 455 kts 22°
2026-05-06 09:56 -30.71656 117.22889 35669 ft 456 kts 21°
2026-05-06 09:56 -30.68726 117.24278 35949 ft 456 kts 21°
2026-05-06 09:57 -30.65779 117.25657 36216 ft 456 kts 21°
2026-05-06 09:57 -30.62831 117.27019 36472 ft 456 kts 21°
2026-05-06 09:57 -30.59879 117.28373 36720 ft 457 kts 20°
2026-05-06 09:57 -30.56922 117.29724 36970 ft 457 kts 20°
2026-05-06 09:58 -30.53929 117.31088 37232 ft 456 kts 20°
2026-05-06 09:58 -30.50973 117.32437 37340 ft 458 kts 20°
2026-05-06 09:58 -30.45001 117.35176 37363 ft 463 kts 20°
2026-05-06 09:59 -30.39012 117.37926 37366 ft 462 kts 20°
2026-05-06 09:59 -30.33045 117.40652 37347 ft 460 kts 20°
2026-05-06 10:00 -30.27087 117.43374 37347 ft 460 kts 20°
2026-05-06 10:00 -30.21124 117.46094 37355 ft 460 kts 20°
2026-05-06 10:01 -30.15167 117.48815 37363 ft 461 kts 20°
2026-05-06 10:01 -30.09199 117.51531 37362 ft 461 kts 20°
2026-05-06 10:02 -30.03227 117.54246 37358 ft 461 kts 20°
2026-05-06 10:02 -29.97256 117.56966 37362 ft 461 kts 20°
2026-05-06 10:03 -29.91281 117.59682 37360 ft 462 kts 20°
2026-05-06 10:03 -29.85295 117.62374 37348 ft 462 kts 20°
2026-05-06 10:04 -29.79317 117.65083 37357 ft 462 kts 20°
2026-05-06 10:04 -29.73343 117.67787 37348 ft 462 kts 20°
2026-05-06 10:05 -29.67358 117.70485 37366 ft 462 kts 19°
2026-05-06 10:05 -29.61372 117.73175 37359 ft 462 kts 19°
2026-05-06 10:06 -29.55373 117.75875 37350 ft 463 kts 20°
2026-05-06 10:06 -29.49374 117.78570 37349 ft 463 kts 19°
2026-05-06 10:07 -29.43372 117.81270 37350 ft 463 kts 19°
2026-05-06 10:07 -29.37368 117.83965 37345 ft 463 kts 19°
2026-05-06 10:08 -29.31362 117.86654 37343 ft 463 kts 19°
2026-05-06 10:08 -29.25357 117.89346 37342 ft 463 kts 19°
2026-05-06 10:09 -29.19349 117.92027 37340 ft 464 kts 19°
2026-05-06 10:09 -29.13332 117.94704 37338 ft 464 kts 19°
2026-05-06 10:10 -29.07315 117.97380 37335 ft 464 kts 19°
2026-05-06 10:10 -29.01290 118.00060 37337 ft 465 kts 19°
2026-05-06 10:11 -28.95258 118.02743 37345 ft 465 kts 19°
2026-05-06 10:11 -28.89224 118.05424 37348 ft 465 kts 19°
2026-05-06 10:12 -28.83193 118.08100 37346 ft 465 kts 18°
2026-05-06 10:12 -28.77154 118.10777 37343 ft 466 kts 18°
2026-05-06 10:13 -28.71111 118.13446 37331 ft 466 kts 18°
2026-05-06 10:13 -28.65060 118.16113 37317 ft 466 kts 18°
2026-05-06 10:14 -28.59010 118.18778 37310 ft 466 kts 18°
2026-05-06 10:14 -28.52916 118.21464 37305 ft 467 kts 18°
2026-05-06 10:15 -28.46864 118.24125 37302 ft 467 kts 18°
2026-05-06 10:15 -28.40810 118.26789 37294 ft 467 kts 18°
2026-05-06 10:16 -28.34789 118.29435 37290 ft 467 kts 18°
2026-05-06 10:16 -28.28731 118.32087 37289 ft 467 kts 18°
2026-05-06 10:17 -28.22671 118.34739 37288 ft 467 kts 18°
2026-05-06 10:17 -28.16617 118.37384 37289 ft 466 kts 18°
2026-05-06 10:18 -28.10567 118.40023 37288 ft 466 kts 18°
2026-05-06 10:18 -28.04517 118.42670 37284 ft 466 kts 18°
2026-05-06 10:19 -27.98471 118.45304 37282 ft 466 kts 18°
2026-05-06 10:19 -27.92411 118.47932 37274 ft 466 kts 17°
2026-05-06 10:20 -27.86423 118.50760 37284 ft 470 kts 30°
2026-05-06 10:20 -27.83889 118.53094 37292 ft 472 kts 47°
2026-05-06 10:20 -27.82025 118.56137 37290 ft 473 kts 64°